Regional Weather Roundup
Issued by NWS

Home | Current Version | Previous Version | Graphics & Text | Print | Product List | Glossary On
Versions: 1 2 3 4 5 6 7 8 9 10 11 12 13 14 15 16 17 18 19 20 21 22 23 24 25 26 27 28 29 30 31 32 33 34 35 36 37 38 39 40 41 42 43 44 45 46 47 48 49 50
000
ASUS43 KFSD 282002
RWRSD

WEATHER ROUNDUP FOR SOUTH DAKOTA
NATIONAL WEATHER SERVICE SIOUX FALLS SD
300 PM CDT SUN MAY 28 2017

NOTE: "FAIR" INDICATES FEW OR NO CLOUDS BELOW 12,000 FEET WITH NO
SIGNIFICANT WEATHER AND/OR OBSTRUCTIONS TO VISIBILITY.


SDZ001>005-009-010-012>017-282100-
NORTHWEST AND NORTH CENTRAL SOUTH DAKOTA

CITY           SKY/WX    TMP DP  RH WIND       PRES   REMARKS
BUFFALO          N/A     65  45  48 W29       29.97R
FAITH            N/A     72  34  24 NW23G36   29.95F
MOBRIDGE       MOSUNNY   77  37  23 NW24      29.85F
$$

SDZ012>016-024>037-041>051-057-063-072>074-282100-
SOUTHWEST AND SOUTH CENTRAL SOUTH DAKOTA

CITY           SKY/WX    TMP DP  RH WIND       PRES   REMARKS
RAPID CTY ARPT SUNNY     75  38  26 NW15G29   30.05F
PIERRE         SUNNY     78  36  21 W18G25    29.93F
CUSTER         CLOUDY    55  43  63 N5        30.16F
ELLSWORTH AFB  MOSUNNY   73  38  27 NW20G26   30.04
PHILIP         MOSUNNY   78  34  20 NW14G30   29.97F
PINE RIDGE     CLOUDY    68  42  38 W8        30.09F
SPEARFISH      FAIR      70  45  40 NW14G24   30.08F
WINNER         FAIR      77  38  24 NW17G30   29.97F
$$

SDZ004>011-016>023-039-040-282100-
NORTHEAST SOUTH DAKOTA

CITY           SKY/WX    TMP DP  RH WIND       PRES   REMARKS
ABERDEEN       MOSUNNY   71  35  26 NW21G32   29.84F
WATERTOWN      SUNNY     70  40  33 NW20G30   29.84F
BROOKINGS      MOSUNNY   70  40  33 NW28G36   29.85S
SISSETON         N/A     74  40  29 NW26G38   29.77F
$$

SDZ017-020-022-023-036>040-048>070-282100-
SOUTHEAST SOUTH DAKOTA

CITY           SKY/WX    TMP DP  RH WIND       PRES   REMARKS
SIOUX FALLS    PTSUNNY   74  46  36 NW17G28   29.87F
HURON          PTSUNNY   75  39  27 N24G32    29.87F
CHAMBERLAIN    PTSUNNY   79  38  22 NW16G26   29.94F
MITCHELL       MOSUNNY   78  34  20 NW21G37   29.90F
YANKTON        MOSUNNY   75  43  31 NW22      29.92S
$$

ABBREVIATIONS USED IN REMARKS
   TC - TEMPERATURE IN CELSIUS
  WCI - WIND CHILL INDEX
   HX - HEAT INDEX
  VSB - VISIBILITY




USA.gov is the U.S. government's official web portal to all federal, state and local government web resources and services.